Tracking 31028 objects as of 17-Jul-2025
HD Live streaming from Space Station
objects crossing your sky now

STARLINK-5751

Track STARLINK-5751 now!
10-day predictions
STARLINK-5751 is classified as:


NORAD ID: 55576
Int'l Code: 2023-020H
Perigee: 565.4 km
Apogee: 567.1 km
Inclination: 43.0 °
Period: 95.8 minutes
Semi major axis: 6937 km
RCS: Unknown
Launch date: February 12, 2023
Source: United States (US)
Launch site: AIR FORCE EASTERN TEST RANGE (AFETR)
Your satellite tracking list
Your tracking list is empty




NASA's NSSDC Master Catalog

Two Line Element Set (TLE):
1 55576U 23020H   25197.64663051  .00000020  00000-0  16567-4 0  9991
2 55576  43.0027 181.1293 0001203 283.1283  76.9425 15.02533214133718
Source of the keplerian elements: AFSPC